User: anonymous   Login
Location: Acton
(51.4942°N, 0.2232°W)
Time: 17:27:06
(UTC+00:00)
Language:

NOSS 3-4 (A) - Orbit

View from above orbital plane
View from above orbital plane
View from above satellite
View from above satellite

Ground track
Ground track

The orbit data is extracted from the following two-line orbital elements,

1 31701U 07027A   20333.11289197 0.00000000  00000-0  00000-0 0    00
2 31701  63.3997 109.3038 0299564  19.7267 340.2733 13.40809543    01
Epoch (UTC): 28 November 2020 02:42:33
Eccentricity: 0.0299564
inclination: 63.3997°
perigee height: 882 km
apogee height: 1330 km
right ascension of ascending node: 109.3038°
argument of perigee: 19.7267°
revolutions per day: 13.40809543
mean anomaly at epoch: 340.2733°
orbit number at epoch: 0

The dashed part of the orbit path shows where the satellite is in the earth's shadow,  

DLR